Location: Amarillo Post Office Jordan Station
(35.1907°N, 101.9342°W)
Time: 13:33:03
(UTC+00:00)

Cosmos 540 Rocket - Pass Details

Date: 24 January 2021
Orbit: 739 x 754 km, 74.1° (Epoch: 03 March)

Event Time Altitude Azimuth Distance (km) Brightness Sun altitude
Exits shadow 12:06:08 41° 321° (NW) 1,070 3.9 -21.6°
Drops below altitude 10° 12:10:09 10° 4° (N) 2,263 5.9 -20.8°
Sets 12:12:37 0° 11° (N) 3,193 6.7 -20.3°
